This demonstration page uses our WeatherBlox Daily Observations layout. Learn more.

Left ArrowRight Arrow

47.50024, -111.30081

Hourly Observations for October 16, 2019

Temp ( °F °C ) Dew Point ( °F °C ) Humidity (%) Winds ( mph kmh ) Pressure ( in mb ) Visibility ( mi km ) Precip ( " mm )
12:53 am 00:53 Clear 55 12.8 27 -2.8 34 34 SW 20 31 29.91 1013 10 16 0.00 0.00
1:53 am 01:53 Clear 55 12.8 26 -3.3 33 33 SW 18 30 29.90 1013 10 16 0.00 0.00
2:53 am 02:53 Clear 56 13.3 26 -3.3 32 32 SW 20 31 29.90 1013 10 16 0.00 0.00
3:53 am 03:53 Clear 54 12.2 27 -2.8 35 35 SW 17 28 29.89 1012 10 16 0.00 0.00
4:53 am 04:53 Clear 54 12.2 26 -3.3 34 34 SW 21 33 29.88 1012 10 16 0.00 0.00
5:53 am 05:53 Clear 51 10.6 27 -2.8 39 39 SW 10 17 29.93 1013 10 16 0.00 0.00
6:53 am 06:53 Clear 53 11.7 28 -2.2 38 38 SW 14 22 29.92 1013 10 16 0.00 0.00
7:53 am 07:53 Sunny 53 11.7 28 -2.2 38 38 SW 16 26 29.91 1013 10 16 0.00 0.00
8:53 am 08:53 Sunny 55 12.8 29 -1.7 37 37 SW 10 17 29.92 1013 10 16 0.00 0.00
9:53 am 09:53 Sunny 56 13.3 30 -1.1 37 37 SSW 13 20 29.92 1013 10 16 0.00 0.00
10:53 am 10:53 Mostly Sunny 60 15.6 31 -0.6 33 33 SSW 15 24 29.90 1013 10 16 0.00 0.00
11:53 am 11:53 Sunny 65 18.3 30 -1.1 27 27 SW 21 33 29.86 1011 10 16 0.00 0.00
12:53 pm 12:53 Sunny 70 21.1 25 -3.9 18 18 SW 21 33 29.81 1010 10 16 0.00 0.00
1:53 pm 13:53 Sunny 69 20.6 26 -3.3 20 20 SW 15 24 29.79 1009 10 16 0.00 0.00
2:53 pm 14:53 Sunny 67 19.4 28 -2.2 23 23 S 5 7 29.77 1008 10 16 0.00 0.00
3:53 pm 15:53 Sunny 68 20 24 -4.4 19 19 SW 14 22 29.74 1007 10 16 0.00 0.00
4:53 pm 16:53 Sunny 72 22.2 24 -4.4 17 17 SW 16 26 29.71 1006 10 16 0.00 0.00
5:53 pm 17:53 Sunny 64 17.8 30 -1.1 28 28 SSW 9 15 29.72 1007 10 16 0.00 0.00
6:53 pm 18:53 Clear 61 16.1 25 -3.9 25 25 WSW 3 6 29.71 1006 10 16 0.00 0.00
7:53 pm 19:53 Clear 54 12.2 29 -1.7 38 38 S 8 13 29.71 1006 10 16 0.00 0.00
8:53 pm 20:53 Clear 53 11.7 28 -2.2 38 38 SSW 8 13 29.69 1006 10 16 0.00 0.00
9:53 pm 21:53 Clear 58 14.4 26 -3.3 29 29 S 14 22 29.65 1004 10 16 0.00 0.00
10:53 pm 22:53 Clear 54 12.2 26 -3.3 34 34 SSW 10 17 29.64 1004 10 16 0.00 0.00
11:53 pm 23:53 Clear 56 13.3 24 -4.4 29 29 S 14 22 29.60 1002 10 16 0.00 0.00

Powered by AerisWeather